Regional Weather Roundup
Issued by NWS Bismarck, ND

Home | Current Version | Previous Version | Text Only | Print | Product List | Glossary On
Versions: 1 2 3 4 5 6 7 8 9 10 11 12 13 14 15 16 17 18 19 20 21 22 23 24 25 26 27 28 29 30 31 32 33 34 35 36 37 38 39 40 41 42 43 44 45 46 47 48 49 50
000
ASUS43 KBIS 162202
RWRBIS

NWR BROADCAST TEXT
NATIONAL WEATHER SERVICE BISMARCK ND
500 PM CDT WED AUG 16 2017

NOTE: "FAIR" INDICATES FEW OR NO CLOUDS BELOW 12,000 FEET WITH NO
SIGNIFICANT WEATHER AND/OR OBSTRUCTIONS TO VISIBILITY.


CITY           SKY/WX    TMP DP  RH WIND       PRES   REMARKS
WILLISTON      SUNNY     83  54  36 NW5       29.89F
MINOT          SUNNY     80  49  33 NW13G20   29.90F
MINOT AFB      SUNNY     79  47  31 N10       29.89F
BISMARCK       CLOUDY    77  55  46 N9        29.91F
DICKINSON      SUNNY     77  50  38 N5        29.93S
GARRISON         N/A     78  52  40 NE7       29.90F
HETTINGER ARPT CLOUDY    80  50  34 N8        29.97F
JAMESTOWN      CLOUDY    72  60  66 N15       29.85F
CARRINGTON     FAIR      73  59  60 N12       29.90S
HAZEN          FAIR      77  55  47 NE6       29.92F
LINTON         FAIR      73  55  53 N12G17    29.92S
MANDAN         FAIR      77  57  50 N12       29.92F
RUGBY          FAIR      77  50  38 N12G21    29.89S
STANLEY        FAIR      77  48  36 VRB5      29.94F
TIOGA          FAIR      77  46  33 CALM      29.93F
WATFORD CITY   FAIR      82  52  34 CALM      29.90S
$$

CITY           SKY/WX    TMP DP  RH WIND       PRES   REMARKS
GRAND FORKS    CLOUDY    69  65  86 N12       29.84S
GRAND FORKS AF CLOUDY    69  64  85 N10       29.85F
DEVILS LAKE    MOSUNNY   74  57  55 N12       29.88S
FARGO          LGT RAIN  68  67  96 N8        29.82S
CANDO          FAIR      77  57  50 NW8       29.90S
CAVALIER       CLOUDY    70  63  78 E6G14     29.85F
GRAFTON        CLOUDY    68  64  88 NE7       29.88S
GWINNER        CLOUDY    66  66 100 N8        29.83S FOG
LANGDON        MOCLDY    72  64  78 E7        29.89S
ROLLA          FAIR      73  54  49 N14       29.91S
WALHALLA       FAIR      73  73 100 E6        29.86F
$$

CITY           SKY/WX    TMP DP  RH WIND       PRES   REMARKS
ABERDEEN       LGT RAIN  68  67  96 N18       29.82S
MOBRIDGE       CLOUDY    73  62  68 N13       29.88F
BUFFALO          N/A     81  47  30 CALM      29.91F
RAPID CITY     CLOUDY    80  47  31 NW13      29.99F
GLASGOW        MOSUNNY   88  42  20 S13G18    29.81F
SIDNEY         SUNNY     85  50  29 S5        29.88F
WOLF POINT     SUNNY     89  44  20 E13G18    29.84F
GLENDIVE       CLOUDY    83  44  25 VRB5      29.90F
MILES CITY     MOSUNNY   89  37  16 CALM      29.87F
BAKER          MOSUNNY   82  42  24 SE7       29.94F
$$

CITY           SKY/WX    TMP DP  RH WIND       PRES   REMARKS
BILLINGS       MOSUNNY   87  36  16 W8        29.91F
GREAT FALLS    SUNNY     84  23  10 NW12G21   29.92F
$$




USA.gov is the U.S. government's official web portal to all federal, state and local government web resources and services.